| time (UTC) | temp C | wind direction | speed KPH | gust KPH | rain 1hr cm | rain 24hr cm | rain mn cm | humidity % | barometer mb |
| 20260504040025 | 5 | 169 | 0.0 | 0.0 | 0.00 | 0.00 | 0.00 | 78 | 1020.7 |
| 20260504034525 | 5 | 169 | 0.0 | 0.0 | 0.00 | 0.00 | 0.00 | 77 | 1020.5 |
| 20260504033026 | 5 | 169 | 0.0 | 0.0 | 0.00 | 0.00 | 0.00 | 77 | 1020.5 |
| 20260504031525 | 5 | 169 | 0.0 | 0.0 | 0.00 | 0.00 | 0.00 | 77 | 1020.3 |
| 20260504030023 | 6 | 169 | 0.0 | 0.0 | 0.00 | 0.00 | 0.00 | 77 | 1020.5 |
| 20260504024524 | 6 | 169 | 0.0 | 0.0 | 0.00 | 0.00 | 0.00 | 77 | 1020.4 |
| 20260504023024 | 6 | 169 | 0.0 | 0.0 | 0.00 | 0.00 | 0.00 | 76 | 1020.5 |
| 20260504021522 | 7 | 169 | 0.0 | 0.0 | 0.00 | 0.00 | 0.00 | 75 | 1020.4 |
| 20260504020024 | 7 | 169 | 0.0 | 0.0 | 0.00 | 0.00 | 0.00 | 74 | 1020.3 |
| 20260504014527 | 7 | 169 | 0.0 | 0.0 | 0.00 | 0.00 | 0.00 | 73 | 1020.1 |
| 20260504013021 | 8 | 169 | 0.0 | 0.0 | 0.00 | 0.00 | 0.00 | 72 | 1019.9 |
| 20260504011521 | 8 | 169 | 0.0 | 0.0 | 0.00 | 0.00 | 0.00 | 69 | 1019.9 |
| 20260504010020 | 9 | 169 | 0.0 | 0.0 | 0.00 | 0.00 | 0.00 | 67 | 1019.7 |
| 20260504004522 | 10 | 169 | 0.0 | 0.0 | 0.00 | 0.00 | 0.00 | 65 | 1019.6 |
| 20260504003020 | 11 | 169 | 0.0 | 0.0 | 0.00 | 0.00 | 0.00 | 63 | 1019.4 |
| 20260504001519 | 11 | 169 | 0.0 | 0.0 | 0.00 | 0.00 | 0.00 | 60 | 1019.3 |
| 20260504000019 | 12 | 169 | 0.0 | 1.6 | 0.00 | 0.00 | 0.00 | 59 | 1019.4 |
| 20260503234518 | 12 | 169 | 0.0 | 0.0 | 0.00 | 0.00 | 0.00 | 60 | 1019.3 |
| 20260503233023 | 13 | 169 | 0.0 | 1.6 | 0.00 | 0.00 | 0.00 | 56 | 1019.3 |
| 20260503231517 | 13 | 169 | 0.0 | 3.2 | 0.00 | 0.00 | 0.00 | 55 | 1019.2 |
| 20260503230017 | 13 | 169 | 0.0 | 6.4 | 0.00 | 0.00 | 0.00 | 52 | 1019.2 |
| 20260503224516 | 13 | 167 | 0.0 | 6.4 | 0.00 | 0.00 | 0.00 | 52 | 1019.2 |
| 20260503223016 | 14 | 167 | 1.6 | 11.3 | 0.00 | 0.00 | 0.00 | 51 | 1019.2 |
| 20260503221526 | 15 | 122 | 0.0 | 6.4 | 0.00 | 0.00 | 0.00 | 49 | 1019.2 |
| 20260503220014 | 15 | 157 | 0.0 | 3.2 | 0.00 | 0.00 | 0.00 | 50 | 1019.3 |
| 20260503214514 | 15 | 189 | 0.0 | 3.2 | 0.00 | 0.00 | 0.00 | 50 | 1019.3 |
| 20260503213013 | 15 | 138 | 3.2 | 9.7 | 0.00 | 0.00 | 0.00 | 51 | 1019.3 |
| 20260503211514 | 15 | 177 | 3.2 | 12.9 | 0.00 | 0.00 | 0.00 | 51 | 1019.5 |
| 20260503210012 | 15 | 177 | 1.6 | 11.3 | 0.00 | 0.00 | 0.00 | 47 | 1019.5 |
| 20260503204512 | 15 | 175 | 3.2 | 14.5 | 0.00 | 0.00 | 0.00 | 49 | 1019.7 |
| 20260503203014 | 15 | 173 | 6.4 | 12.9 | 0.00 | 0.00 | 0.00 | 49 | 1019.7 |
| 20260503201511 | 16 | 175 | 6.4 | 14.5 | 0.00 | 0.00 | 0.00 | 50 | 1019.9 |
| 20260503200010 | 16 | 132 | 3.2 | 11.3 | 0.00 | 0.00 | 0.00 | 52 | 1020.1 |
| 20260503194509 | 15 | 165 | 4.8 | 12.9 | 0.00 | 0.00 | 0.00 | 54 | 1020.3 |
| 20260503193009 | 15 | 157 | 4.8 | 16.1 | 0.00 | 0.00 | 0.00 | 58 | 1020.5 |
| 20260503191509 | 16 | 115 | 6.4 | 14.5 | 0.00 | 0.00 | 0.00 | 58 | 1020.6 |
| 20260503190010 | 15 | 155 | 3.2 | 11.3 | 0.00 | 0.00 | 0.00 | 60 | 1020.8 |
| 20260503184513 | 15 | 160 | 4.8 | 17.7 | 0.00 | 0.00 | 0.00 | 57 | 1021.0 |
| 20260503183006 | 15 | 149 | 3.2 | 8.0 | 0.00 | 0.00 | 0.00 | 53 | 1020.9 |
| 20260503181506 | 14 | 169 | 1.6 | 11.3 | 0.00 | 0.00 | 0.00 | 48 | 1021.1 |
| 20260503180005 | 15 | 126 | 6.4 | 12.9 | 0.00 | 0.00 | 0.00 | 45 | 1021.2 |
| 20260503174503 | 15 | 46 | 3.2 | 8.0 | 0.00 | 0.00 | 0.00 | 43 | 1021.3 |
| 20260503173003 | 14 | 36 | 4.8 | 11.3 | 0.00 | 0.00 | 0.00 | 42 | 1021.6 |
| 20260503171502 | 15 | 57 | 1.6 | 6.4 | 0.00 | 0.00 | 0.00 | 45 | 1021.7 |
| 20260503081543 | 1 | 142 | 0.0 | 0.0 | 0.00 | 0.00 | 0.00 | 81 | 1019.3 |
| 20260503071551 | 2 | 142 | 0.0 | 0.0 | 0.00 | 0.00 | 0.00 | 80 | 1018.7 |
| 20260503054529 | 5 | 142 | 0.0 | 0.0 | 0.00 | 0.00 | 0.00 | 77 | 1018.5 |
| 20260503053021 | 5 | 142 | 0.0 | 0.0 | 0.00 | 0.00 | 0.00 | 75 | 1018.4 |
| 20260503051520 | 6 | 142 | 0.0 | 0.0 | 0.00 | 0.00 | 0.00 | 75 | 1018.4 |
| 20260503050028 | 6 | 142 | 0.0 | 3.2 | 0.00 | 0.00 | 0.00 | 75 | 1018.4 |
| 20260503044519 | 5 | 142 | 0.0 | 0.0 | 0.00 | 0.00 | 0.00 | 78 | 1018.6 |
| 20260503043015 | 5 | 142 | 0.0 | 0.0 | 0.00 | 0.00 | 0.00 | 78 | 1018.4 |
| 20260503041513 | 5 | 142 | 0.0 | 0.0 | 0.00 | 0.00 | 0.00 | 78 | 1018.1 |